Location: Biltmore Gardens
(41.6070°N, 83.4666°W)
Time: 14:28:11
(UTC+00:00)

Cosmos 1943 - Pass Details

Date: 14 July 2020
Orbit: 835 x 848 km, 71.0° (Epoch: 04 August)

Event Time Altitude Azimuth Distance (km) Brightness Sun altitude
Exits shadow 05:25:12 35° 257° (WSW) 1,340 4.1 -26.7°
Maximum altitude 05:26:55 45° 300° (WNW) 1,144 4.0 -26.7°
Drops below altitude 10° 05:32:20 10° 12° (NNE) 2,467 6.6 -26.8°
Sets 05:34:54 0° 19° (NNE) 3,403 7.4 -26.8°
